Flag for Vietnam Weather past 2 weeks in Ho Chi Minh, Vietnam

Now
79 °F

Passing clouds.


Feels Like: 81 °F
Forecast: 79 / 96 °F
Wind: 7 mph from East

Location: Ho Chi Minh

Current Time: Mar 27, 2015 at 5:50:59 AM

Latest Report: Mar 27, 2015 at 5:30 AM


Visibility: N/A

Pressure: 29.92 "Hg

Humidity: 74%

Dew point: 70 °F

Location of Ho Chi MinhLocation

Historic Weather in Ho Chi Minh — Graph

°F

Ho Chi Minh temperature yesterday

Maximum temperature yesterday: 99 °F (at 12:30 PM)
Minimum temperature yesterday: 77 °F (at 5:00 AM)
Average temperature yesterday: 87 °F

Past Weeks' High & Low Weather Summary

 TemperatureHumidityPressure
High99 °F (Mar 25, 12:30 PM)83% (Mar 12, 6:30 AM)30.01 "Hg (Mar 12, 6:30 AM)
Low73 °F (Mar 12, 6:30 AM)27% (Mar 25, 12:30 PM)29.74 "Hg (Mar 19, 2:30 PM)
Average84 °F60%29.89 "Hg
* Reported Mar 12 5:00 AM — Mar 27 5:00 AM, Ho Chi Minh, Weather by CustomWeather, © 2015

Note: Actual official high and low records may vary slightly from our data, if they occured in-between our weather recording intervals... More about our weather records

Advertising

Ho Chi Minh weather history for previous 24 hours

 ConditionsComfort  
Time TempWeatherWind HumidityBarometerVisibility
5:00 AM
Fri, Mar 27
79 °FPassing clouds.6 mph74%29.92 "HgN/A
4:30 AM81 °FWarm.5 mph70%29.92 "HgN/A
4:00 AM79 °FPassing clouds.6 mph74%29.92 "HgN/A
3:30 AM81 °FPassing clouds.6 mph70%29.92 "HgN/A
3:00 AM81 °FPassing clouds.8 mph70%29.92 "HgN/A
2:30 AM81 °FPassing clouds.6 mph70%29.92 "HgN/A
2:00 AM82 °FWarm.6 mph66%29.92 "HgN/A
1:30 AM82 °FPassing clouds.7 mph66%29.92 "HgN/A
1:00 AM82 °FWarm.6 mph66%29.92 "HgN/A
12:30 AM82 °FWarm.5 mph66%29.92 "HgN/A
12:00 AM82 °FPassing clouds.6 mph66%29.92 "HgN/A
11:30 PM
Thu, Mar 26
82 °FPassing clouds.7 mph66%29.95 "HgN/A
11:00 PM84 °FWarm.8 mph62%29.95 "HgN/A
10:30 PM84 °FWarm.7 mph62%29.95 "HgN/A
10:00 PM84 °FPassing clouds.8 mph62%29.95 "HgN/A
9:30 PM84 °FPassing clouds.9 mph62%29.95 "HgN/A
9:00 PM84 °FPassing clouds.9 mph62%29.95 "HgN/A
8:30 PM84 °FPassing clouds.8 mph58%29.92 "HgN/A
8:00 PM86 °FPassing clouds.8 mph55%29.92 "HgN/A
7:30 PM86 °FPassing clouds.9 mph55%29.92 "HgN/A
7:00 PM86 °FPassing clouds.10 mph52%29.89 "HgN/A
6:30 PM88 °FPassing clouds.13 mph49%29.89 "HgN/A
6:00 PM90 °FScattered clouds.13 mph46%29.86 "HgN/A
5:30 PM90 °FScattered clouds.13 mph46%29.86 "HgN/A
5:00 PM91 °FScattered clouds.13 mph44%29.86 "HgN/A
4:30 PM93 °FScattered clouds.13 mph41%29.86 "HgN/A
4:00 PM91 °FScattered clouds.7 mph49%29.86 "HgN/A
3:30 PM86 °FThunderstorms. Scattered clouds.13 mph66%29.83 "Hg5 mi
3:00 PM95 °FScattered clouds.13 mph44%29.83 "HgN/A
2:30 PM97 °FScattered clouds.12 mph39%29.83 "HgN/A
2:00 PM97 °FScattered clouds.9 mph37%29.83 "HgN/A
1:30 PM99 °FScattered clouds.8 mph33%29.86 "HgN/A
1:00 PM97 °FScattered clouds.10 mph32%29.86 "HgN/A
12:30 PM99 °FPassing clouds.12 mph31%29.89 "HgN/A
12:00 PM95 °FPassing clouds.12 mph36%29.92 "HgN/A
11:30 AM95 °FPassing clouds.9 mph36%29.92 "HgN/A
11:00 AM93 °FPassing clouds.8 mph39%29.95 "HgN/A
10:30 AM91 °FPassing clouds.5 mph41%29.95 "HgN/A
10:00 AM90 °FClear.5 mph46%29.95 "Hg4 mi
9:30 AM90 °FClear.5 mph49%29.98 "Hg4 mi
9:00 AM88 °FPassing clouds.5 mph49%29.98 "HgN/A
8:30 AM86 °FPassing clouds.6 mph52%29.98 "HgN/A
8:00 AM86 °FPassing clouds.8 mph55%29.98 "HgN/A
7:30 AM84 °FSunny.8 mph58%29.98 "Hg10 mi
7:00 AM82 °FScattered clouds.6 mph62%29.95 "HgN/A
6:30 AM81 °FScattered clouds.5 mph70%29.95 "HgN/A
6:00 AM79 °FScattered clouds.3 mph74%29.95 "HgN/A
5:30 AM79 °FPassing clouds.3 mph74%29.92 "HgN/A
5:00 AM77 °FPassing clouds.7 mph79%29.92 "HgN/A
Weather by CustomWeather, © 2015

See weather overviewHow to use our weather pages